Skip Page Navigation
NASA JPL Caltech
NASA Logo - Jet Propulsion Laboratory + View the NASA Portal
+ Center for Near-Earth Object Studies
JPL Home Earth Solar System Stars & Galaxies Technology
JPL Solar System Dynamics
BODIES ORBITS EPHEMERIDES TOOLS PHYSICAL DATA DISCOVERY FAQ SITE MAP
IMPORTANT: The SSD Announcement email list is now available. Major changes are coming in the near future, including possible hostname and/or URL changes. To be notified of such changes, subscribe to this email list.

Please visit this page for more details.


JPL Small-Body Database Browser
Search: [ help ]  
324762 (2007 GS19)
Classification: Main-belt Asteroid          SPK-ID: 2324762
Ephemeris | Orbit Diagram | Orbital Elements | Mission Design | Physical Parameters | Discovery Circumstances | Close-Approach Data ]

[ show orbit diagram ]
Orbital Elements at Epoch 2458600.5 (2019-Apr-27.0) TDB
Reference: JPL 10 (heliocentric ecliptic J2000)
 Element Value Uncertainty (1-sigma)   Units 
e .1315618168776696 7.7126e-08  
a 3.142192098149151 4.4571e-08 au
q 2.728799596737992 2.2711e-07 au
i .9161057113359879 6.8291e-06 deg
node 271.396620166972 0.0005891 deg
peri 320.3025992961053 0.00059037 deg
M 48.60608825982456 3.6077e-05 deg
tp 2458325.814524776452
(2018-Jul-26.31452478)
0.00020447 TDB
period 2034.452362261217
5.57
4.3287e-05
1.185e-07
d
yr
n .1769517963054557 3.765e-09 deg/d
Q 3.55558459956031 5.0435e-08 au
  Orbit Determination Parameters
   # obs. used (total)      110  
   data-arc span      5825 days (15.95 yr)  
   first obs. used      2003-09-16  
   last obs. used      2019-08-28  
   planetary ephem.      DE431  
   SB-pert. ephem.      SB431-N16  
   condition code      0  
   norm. resid. RMS      .57521  
   source      ORB  
   producer      Otto Matic  
   solution date      2019-Sep-24 06:13:26  

Additional Information
 Earth MOID = 1.71816 au 
 Jupiter MOID = 1.44225 au 
 T_jup = 3.196 
[ show covariance matrix ]

Ephemeris | Orbit Diagram | Orbital Elements | Mission Design | Physical Parameters | Discovery Circumstances | Close-Approach Data ]

Physical Parameter Table
Parameter Symbol Value Units Sigma Reference Notes
absolute magnitude H 16.3   n/a MPO450272  

324762 (2007 GS19)          Discovered 2007-Apr-11 by Spacewatch at Kitt Peak
Reference: 20120406/Numbers.arcLast Updated: 2012-04-09

[ show close-approach data ]
Alternate Designations
 2007 GS19 = 2006 BO170 
Ephemeris | Orbit Diagram | Orbital Elements | Mission Design | Physical Parameters | Discovery Circumstances | Close-Approach Data ]
ABOUT SSD CREDITS/AWARDS PRIVACY/COPYRIGHT GLOSSARY LINKS
FirstGov
(server date/time)  
NASA Home Page
Site Manager:   Ryan S. Park
Webmaster  Alan B. Chamberlin